www.pogodaiklimat.ru

Погода и климат >> Архив погоды >> Россия >> Ненецкий АО >> Шойна


АРХИВ ПОГОДЫ в Шойне

Время (UTC), дата Ветер
(напр.,м/с)
 
Видим.   Явления Облачность Т
(С)
Тd
(С)
f
(%)
Тe
(С)
Тes
(С)
Комфортность P
(гПа)
Po
(гПа)
Тmin
(С)
Tmax
(С)
R
(мм)
R24
(мм)
S
(см)
15 11.04 З 2 20 км 8/5 600 м
[Sc Ac trans]
-4.5 -6.1 89 -9 -9 1016.2 1015.6 -2.8
18 11.04 ЮЗ 6 20 км 10/10 600 м
[Sc]
-3.6 -4.7 92 -11 -11 1014.4 1013.7
21 11.04 З 5 4000 м слаб. ливневой снег 10/10 300 м
[Cb calv]
-1.8 -1.8 100 -9 -9 1012.2 1011.5
00 12.04 З 5 4000 м слаб. ливневой снег 10/10 300 м
[Sc]
-0.4 -0.4 100 -7 -7 1010.5 1009.9
03 12.04 СЗ 6 20 км {ливн. осадки} 8/8 600 м
[Sc]
-0.3 -0.3 100 -7 -7 1010.2 1009.5 -4.5 1 104
06 12.04 СЗ 9-11
{11}
20 км {ливн. осадки} 8/8 300 м
[Cb calv]
-1.0 -2.1 92 -9 -9 1012.6 1012.0
09 12.04 С 10-14
{14}
20 км {ливн. осадки} 10/10 300 м
[Cb calv]
-1.1 -2.8 88 -10 -10 1017.2 1016.5
12 12.04 С 9-11
{14}
20 км в посл. час крупа {ливн. осадки} 10/10 300 м
[Cb calv]
-2.4 -3.5 92 -11 -11 1021.1 1020.5
15 12.04 СЗ 6
{11}
20 км позёмок {ливн. осадки} 9/9 300 м
[Cb calv]
-3.3 -5.0 88 -11 -11 1023.2 1022.5 -0.2 0.3
18 12.04 С 6
{11}
20 км {ливн. осадки, метель} 9/8 300 м
[Cb calv Ac trans]
-3.6 -6.9 78 -11 -11 1024.6 1023.9
21 12.04 СЗ 5
{10}
20 км 9/9 600 м
[Sc diur, vesp]
-3.8 -7.5 75 -11 -11 1025.8 1025.1
00 13.04 СЗ 5
{10}
20 км 10/10 600 м
[Sc diur, vesp]
-4.0 -5.9 87 -11 -11 1026.9 1026.3
03 13.04 СЗ 4 20 км 9/6 600 м
[Sc Ac trans]
-3.8 -5.8 86 -10 -10 1028.1 1027.4 -4.1 102
06 13.04 СЗ 3 20 км 9/9 600 м
[Sc]
-2.5 -5.1 82 -8 -7 1029.0 1028.4
09 13.04 З 2 20 км 9/9 300 м
[Cb calv]
-1.2 -4.8 76 -5 -4 1029.4 1029.0
12 13.04 ЮЗ 4 20 км 8/3 600 м
[Sc Ac trans Cc]
-1.5 -2.7 92 -7 -6 1028.8 1028.2
15 13.04 ЮЗ 5 20 км 10/9 600 м
[Sc Ci fib]
-2.0 -2.6 96 -9 -9 1027.1 1026.5 -0.6
18 13.04 ЮЗ 7 2000 м снег 10/8 300 м
[Frnb As op]
-0.9 -0.9 100 -9 -9 1024.7 1024.0
21 13.04 З 6
{10}
4000 м слаб. снег 10/0
[Ac As]
+0.3 +0.3 100 -7 -7 1023.2 1022.6
00 14.04 З 8-10
{10}
4000 м слаб. снег 10/6 300 м
[Frnb As op]
+0.3 +0.3 100 -7 -7 1021.6 1020.9
03 14.04 З 10-12
{13}
20 км {снег} 10/10 600 м
[Sc]
+0.6 +0.6 100 -8 -8 1019.3 1018.7 -2.0 0.8 102
06 14.04 З 7-11
{11}
20 км {снег} 10/10 600 м
[Sc]
+0.9 +0.8 99 -6 -6 1018.2 1017.6
09 14.04 З 7-10
{11}
4000 м слаб. ливневой снег 10/10 300 м
[Cb calv]
+0.8 +0.6 99 -6 -6 1017.8 1017.2
12 14.04 З 10-13
{14}
4000 м слаб. ливневой снег 10/10 300 м
[Cb calv]
+0.7 +0.5 99 -8 -8 1017.6 1017.0
15 14.04 СЗ 10-14
{14}
4000 м слаб. ливневой снег 10/10 300 м
[Cb calv]
+1.0 +1.0 100 -7 -7 1015.9 1015.3 +1.1 1
18 14.04 СЗ 8-12
{14}
20 км {ливн. осадки} 10/10 600 м
[Sc]
+1.1 +1.1 100 -6 -6 1014.6 1014.0
21 14.04 СЗ 7
{13}
4000 м слаб. снег 10/10 300 м
[Frnb Ns]
+0.9 +0.7 99 -6 -6 1013.3 1012.6
00 15.04 СЗ 10-12
{14}
20 км слаб. дождь 10/10 300 м
[Frnb Ns]
+1.2 +1.1 99 -7 -7 1013.1 1012.5
03 15.04 СЗ 7-11
{11}
4000 м дымка {дождь} 10/10 300 м
[St]
+1.1 +1.0 99 -6 -6 1014.2 1013.6 +0.7 0.7 101
06 15.04 СЗ 7
{11}
20 км {дождь} 10/10 600 м
[Sc]
+1.3 +1.3 100 -6 -6 1015.2 1014.6
09 15.04 СЗ 8-10
{11}
20 км 10/10 300 м
[Sc]
+1.4 +1.0 97 -6 -6 1016.0 1015.4
12 15.04 СЗ 8-10
{11}
20 км {ливн. осадки} 10/10 600 м
[Sc]
+1.5 +1.3 99 -6 -6 1016.0 1015.4
15 15.04 СЗ 7
{11}
4000 м слаб. ливневой дождь со снегом 10/10 300 м
[Cb calv]
+0.8 +0.5 98 -6 -6 1016.3 1015.7 +1.5 1
18 15.04 С 7
{11}
20 км {ливн. осадки} 10/10 600 м
[Sc]
+0.4 +0.1 98 -7 -7 1018.5 1017.8
21 15.04 С 6
{11}
20 км 8/8 600 м
[Sc]
-0.3 -1.0 95 -7 -7 1021.9 1021.3
00 16.04 С 3
{10}
20 км 8/8 600 м
[Sc]
-1.8 -2.6 94 -7 -7 1025.8 1025.2
03 16.04 В 6 20 км 9/9 600 м
[Sc]
-2.6 -4.0 90 -10 -10 1029.9 1029.3 -3.1 0.3 93
06 16.04 В 7 20 км 9/6 600 м
[Sc Cc]
-2.1 -4.5 84 -10 -9 1033.3 1032.7
09 16.04 ЮВ 5 20 км 9/9 600 м
[Sc]
-2.9 -5.1 85 -10 -9 1036.0 1035.3
12 16.04 Ю 4 20 км 9/9 600 м
[Sc]
-2.8 -5.4 82 -9 -8 1037.2 1036.5
15 16.04 Ю 6 20 км 10/10 600 м
[Sc]
-3.2 -4.9 88 -11 -11 1036.2 1035.6 -1.1
18 16.04 ЮЗ 6 20 км 10/10 600 м
[Sc]
-2.8 -3.1 98 -10 -10 1034.6 1034.0
21 16.04 ЮЗ 6 20 км 10/10 600 м
[Sc]
-2.3 -2.7 97 -10 -10 1033.4 1032.8
00 17.04 ЮЗ 7
{10}
20 км 10/10 600 м
[Sc]
-1.8 -1.8 100 -10 -10 1031.4 1030.8
03 17.04 З 4 4000 м дымка 10/10 300 м
[St]
-0.1 -0.1 100 -6 -6 1029.7 1029.1 -3.7 91
06 17.04 З 5 20 км 8/8 600 м
[Sc]
+0.7 +0.7 100 -6 -5 1028.8 1028.2
09 17.04 З 4 20 км 10/10 600 м
[Sc]
+0.8 +0.5 98 -5 -5 1028.2 1027.6
12 17.04 З 5 20 км 10/10 600 м
[Sc]
+0.9 +0.1 94 -5 -5 1027.5 1026.9
15 17.04 З 6 20 км 10/10 600 м
[Sc]
+0.4 +0.2 99 -6 -6 1025.8 1025.1 +1.6
18 17.04 З 8-11
{11}
10 км слаб. дождь 10/6 300 м
[Frnb As op]
+0.8 +0.7 99 -7 -7 1023.7 1023.0
21 17.04 СЗ 10-13
{13}
10 км слаб. дождь 10/10 300 м
[Frnb Ns]
+1.2 +1.2 100 -7 -7 1021.6 1021.0
00 18.04 СЗ 7
{13}
10 км слаб. дождь 10/10 300 м
[Frnb Ns]
+0.7 +0.6 99 -6 -6 1021.7 1021.1
03 18.04 С 6
{11}
20 км {дождь} 10/10 600 м
[Sc]
+0.6 +0.6 100 -6 -6 1023.6 1023.0 +0.4 1 87
06 18.04 СЗ 5
{11}
4000 м слаб. ливневой снег {дождь} 10/10 300 м
[Cb calv]
+0.5 +0.5 100 -6 -6 1024.9 1024.3
09 18.04 З 4 20 км {ливн. осадки} 10/10 600 м
[Sc]
+0.9 +0.9 100 -5 -5 1026.1 1025.4
12 18.04 СЗ 6 20 км {ливн. осадки} 10/10 600 м
[Sc]
+1.3 +1.3 100 -5 -5 1026.0 1025.3

 

Местоположение метеостанции Шойна (Ненецкий АО, Россия): широта 67.88 долгота 44.17 высота над уровнем моря 8 м.

В архиве по умолчанию представлена погода в Шойне за последнюю неделю. Архивные данные за месяц целиком и за предыдущие месяцы, начиная с января 2011 года, Вы можете получить, выбрав интересующий диапазон дат из раскрывающегося списка и нажав кнопку "Ввод!".


*Определитесь, кто Вы:
робот инопланетянин человек

Внимание! Время в таблицах - всемирное. Для получения местного времени необходимо прибавить поправку, которая равна 3 ч.

Смотрите также архив погоды в соседних городах и на ближайших метеорологических станциях:

Погода в Канином Носе (Ненецкий АО, Россия) (93 км)
Погода на Мысе Микулкин (Ненецкий АО, Россия) (105 км)
Погода в Неси (Ненецкий АО, Россия) (144 км)
Погода на Моржовец Острове (Архангельская область, Россия) (148 км)
Погода в Абрамовском маяке (Архангельская область, Россия) (172 км)
Погода в Святом Носе (Мурманская область, Россия) (186 км)
Погода в Индиге (Ненецкий АО, Россия) (191 км)
Погода в Иоканьге (Мурманская область, Россия) (196 км)
Погода в Нижней Пеше (Ненецкий АО, Россия) (199 км)
Погода в Каневке (Мурманская область, Россия) (209 км)

Пояснения к столбцам:

Ветер - указаны скорость ветра в м/с - средняя за 10 мин, порывы в срок и между сроками (в фигурных скобках) и направление, откуда дует ветер: С - северный, СВ - северо-восточный, В - восточный, ЮВ - юго-восточный, Ю - южный, ЮЗ - юго-западный, З - западный, СЗ - северо-западный.
Видимость - горизонтальная дальность видимости в метрах или километрах. При видимости от 1 до 10 км при отсутствии осадков обычно наблюдается дымка, при ухудшении видимости до 1 км и менее - туман. В сухую погоду видимость может ухудшаться дымом, пылью или мглою.
Явления - указаны атмосферные явления, наблюдавшиеся в срок или в последний час перед сроком; фигурными скобками обозначены явления, наблюдавшиеся между сроками (за 1-3 часа до срока); квадратными скобками обозначены град или гололедные отложения с указанием их диаметра в мм.
Облачность - указаны через наклонную черту общая и нижняя облачность в баллах и высота нижней границы облаков в метрах; квадратными скобками обозначены формы облаков: Ci - перистые, Cs - перисто-слоистые, Cc - перисто-кучевые, Ac - высококучевые, As - высокослоистые, Sc - слоисто-кучевые, Ns - слоисто-дождевые, Cu - кучевые, Cb - кучево-дождевые. Подробнее классификацию облаков см. в Атласе облаков (PDF).
T - Температура воздуха - температура, измеренная на высоте 2 м над землей.
Td - Температура точки росы - температура, при понижении до которой содержащийся в воздухе водяной пар достигнет насыщения.
f - Относительная влажность воздуха - влажноcть воздуха, измеренная на высоте 2 м над землей.
Te - Эффективная температура - температура, которую ощущает одетый по сезону человек в тени. Характеристика душности погоды. При расчете учитывается влияние влажности воздуха и скорости ветра на теплоощущения человека.
Tes - Эффективная температура на солнце - температура, которую ощущает человек, с поправкой на солнечный нагрев. Характеристика знойности погоды. Зависит от высоты солнца над горизонтом, облачности и скорости ветра. Ночью, в пасмурную погоду, а также при ветре 12 м/с и более поправка равна нулю.
P - Атмосферное давление - приведенное к уровню моря атмосферное давление.
Po - Атмосферное давление - измеренное на уровне метеостанции атмосферное давление.
Tmin - Минимальная температура - минимум температуры воздуха на высоте 2 м над землей.
Tmax - Максимальная температура - максимум температуры воздуха на высоте 2 м над землей.
R - Количество осадков - Количество выпавших осадков за период времени, мм. При наведении курсора мыши на число - период времени, за который выпало указанное количество осадков.
R24 - Количество осадков - Количество выпавших осадков за 24 часа, мм.
S - Снежный покров - Высота снежного покрова, см. При наведении курсора мыши на число - состояние снежного покрова и степень покрытия местности в баллах.